| time (UTC) | temp C | wind direction | speed KPH | gust KPH | rain 1hr cm | rain 24hr cm | rain mn cm | humidity % | barometer mb |
| 20260505153037 | 24 | 49 | 6.4 | 17.7 | 0.00 | 0.00 | 0.00 | 42 | 1012.7 |
| 20260505152520 | 23 | 49 | 8.0 | 19.3 | 0.00 | 0.00 | 0.00 | 42 | 1012.8 |
| 20260505152019 | 23 | 49 | 11.3 | 20.9 | 0.00 | 0.00 | 0.00 | 42 | 1012.7 |
| 20260505151536 | 23 | 49 | 6.4 | 20.9 | 0.00 | 0.00 | 0.00 | 44 | 1012.7 |
| 20260505151018 | 23 | 49 | 9.7 | 20.9 | 0.00 | 0.00 | 0.00 | 43 | 1012.8 |
| 20260505150518 | 23 | 49 | 9.7 | 17.7 | 0.00 | 0.00 | 0.00 | 44 | 1012.7 |
| 20260505140516 | 21 | 49 | 9.7 | 16.1 | 0.00 | 0.00 | 0.00 | 48 | 1013.0 |
| 20260505125016 | 17 | 49 | 3.2 | 12.9 | 0.00 | 0.00 | 0.00 | 54 | 1013.1 |
| 20260505124536 | 17 | 49 | 4.8 | 12.9 | 0.00 | 0.00 | 0.00 | 54 | 1013.2 |
| 20260505124018 | 17 | 49 | 3.2 | 12.9 | 0.00 | 0.00 | 0.00 | 55 | 1013.2 |
| 20260505123517 | 17 | 49 | 6.4 | 16.1 | 0.00 | 0.00 | 0.00 | 55 | 1013.1 |
| 20260505123037 | 17 | 49 | 6.4 | 16.1 | 0.00 | 0.00 | 0.00 | 56 | 1013.0 |
| 20260505122517 | 17 | 49 | 6.4 | 16.1 | 0.00 | 0.00 | 0.00 | 55 | 1013.1 |
| 20260505122016 | 17 | 49 | 4.8 | 14.5 | 0.00 | 0.00 | 0.00 | 56 | 1013.1 |
| 20260505121535 | 17 | 49 | 4.8 | 14.5 | 0.00 | 0.00 | 0.00 | 56 | 1013.1 |
| 20260505121018 | 17 | 49 | 4.8 | 12.9 | 0.00 | 0.00 | 0.00 | 56 | 1013.0 |
| 20260505120516 | 16 | 49 | 1.6 | 11.3 | 0.00 | 0.00 | 0.00 | 57 | 1013.2 |
| 20260505120034 | 16 | 49 | 3.2 | 14.5 | 0.00 | 0.00 | 0.00 | 57 | 1013.2 |
| 20260505115517 | 16 | 49 | 6.4 | 16.1 | 0.00 | 0.00 | 0.00 | 57 | 1013.0 |
| 20260505115018 | 16 | 49 | 6.4 | 16.1 | 0.00 | 0.00 | 0.00 | 57 | 1012.8 |
| 20260505114535 | 16 | 49 | 6.4 | 16.1 | 0.00 | 0.00 | 0.00 | 57 | 1012.8 |
| 20260505114020 | 16 | 49 | 4.8 | 14.5 | 0.00 | 0.00 | 0.00 | 57 | 1012.8 |
| 20260505113517 | 16 | 49 | 4.8 | 14.5 | 0.00 | 0.00 | 0.00 | 58 | 1012.6 |
| 20260505113044 | 16 | 49 | 3.2 | 12.9 | 0.00 | 0.00 | 0.00 | 58 | 1012.5 |
| 20260505112515 | 16 | 49 | 4.8 | 11.3 | 0.00 | 0.00 | 0.00 | 58 | 1012.5 |
| 20260505112016 | 15 | 49 | 4.8 | 14.5 | 0.00 | 0.00 | 0.00 | 58 | 1012.6 |
| 20260505111538 | 15 | 49 | 4.8 | 14.5 | 0.00 | 0.00 | 0.00 | 58 | 1012.5 |
| 20260505111016 | 15 | 49 | 8.0 | 14.5 | 0.00 | 0.00 | 0.00 | 58 | 1012.5 |
| 20260505110519 | 15 | 49 | 6.4 | 12.9 | 0.00 | 0.00 | 0.00 | 58 | 1012.4 |
| 20260505102015 | 15 | 49 | 6.4 | 12.9 | 0.00 | 0.00 | 0.00 | 58 | 1012.0 |
| 20260505101554 | 15 | 49 | 4.8 | 12.9 | 0.00 | 0.00 | 0.00 | 58 | 1012.0 |
| 20260505101016 | 15 | 49 | 4.8 | 12.9 | 0.00 | 0.00 | 0.00 | 59 | 1012.1 |
| 20260505100516 | 15 | 49 | 4.8 | 12.9 | 0.00 | 0.00 | 0.00 | 59 | 1011.9 |
| 20260505100054 | 15 | 49 | 4.8 | 12.9 | 0.00 | 0.00 | 0.00 | 59 | 1012.0 |
| 20260505095517 | 15 | 49 | 4.8 | 12.9 | 0.00 | 0.00 | 0.00 | 59 | 1012.0 |
| 20260505095017 | 15 | 49 | 4.8 | 12.9 | 0.00 | 0.00 | 0.00 | 59 | 1011.9 |
| 20260505094536 | 15 | 49 | 3.2 | 11.3 | 0.00 | 0.00 | 0.00 | 59 | 1011.9 |
| 20260505094015 | 15 | 49 | 4.8 | 9.7 | 0.00 | 0.00 | 0.00 | 59 | 1011.9 |
| 20260505093515 | 15 | 49 | 3.2 | 11.3 | 0.00 | 0.00 | 0.00 | 59 | 1011.9 |
| 20260505093035 | 15 | 49 | 4.8 | 11.3 | 0.00 | 0.00 | 0.00 | 59 | 1011.8 |
| 20260505092515 | 15 | 49 | 4.8 | 11.3 | 0.00 | 0.00 | 0.00 | 59 | 1011.8 |
| 20260505092015 | 15 | 49 | 4.8 | 11.3 | 0.00 | 0.00 | 0.00 | 59 | 1011.8 |
| 20260505091534 | 15 | 49 | 4.8 | 11.3 | 0.00 | 0.00 | 0.00 | 59 | 1011.7 |
| 20260505091016 | 15 | 49 | 4.8 | 9.7 | 0.00 | 0.00 | 0.00 | 59 | 1011.5 |
| 20260505090518 | 15 | 49 | 3.2 | 11.3 | 0.00 | 0.00 | 0.00 | 59 | 1011.6 |
| 20260505090038 | 15 | 49 | 4.8 | 11.3 | 0.00 | 0.00 | 0.00 | 59 | 1011.4 |
| 20260505085518 | 15 | 49 | 6.4 | 11.3 | 0.00 | 0.00 | 0.00 | 59 | 1011.4 |
| 20260505085018 | 15 | 49 | 4.8 | 11.3 | 0.00 | 0.00 | 0.00 | 59 | 1011.5 |
| 20260505084538 | 15 | 49 | 4.8 | 11.3 | 0.00 | 0.00 | 0.00 | 60 | 1011.5 |
| 20260505084016 | 15 | 49 | 4.8 | 11.3 | 0.00 | 0.00 | 0.00 | 60 | 1011.6 |
| 20260505083515 | 15 | 49 | 4.8 | 11.3 | 0.00 | 0.00 | 0.00 | 61 | 1011.5 |
| 20260505083035 | 15 | 49 | 4.8 | 11.3 | 0.00 | 0.00 | 0.00 | 61 | 1011.6 |
| 20260505082515 | 15 | 49 | 4.8 | 14.5 | 0.00 | 0.00 | 0.00 | 61 | 1011.7 |
| 20260505082018 | 15 | 49 | 4.8 | 14.5 | 0.00 | 0.00 | 0.00 | 61 | 1011.6 |
| 20260505081538 | 15 | 49 | 4.8 | 11.3 | 0.00 | 0.00 | 0.00 | 62 | 1011.6 |
| 20260505081018 | 15 | 49 | 4.8 | 9.7 | 0.00 | 0.00 | 0.00 | 62 | 1011.6 |
| 20260505080517 | 15 | 49 | 4.8 | 9.7 | 0.00 | 0.00 | 0.00 | 63 | 1011.4 |
| 20260505080047 | 15 | 49 | 3.2 | 9.7 | 0.00 | 0.00 | 0.00 | 64 | 1011.4 |
| 20260505075515 | 15 | 49 | 3.2 | 9.7 | 0.00 | 0.00 | 0.00 | 63 | 1011.4 |
| 20260505075015 | 15 | 49 | 3.2 | 9.7 | 0.00 | 0.00 | 0.00 | 63 | 1011.3 |
| 20260505074532 | 15 | 49 | 3.2 | 9.7 | 0.00 | 0.00 | 0.00 | 63 | 1011.4 |
| 20260505074015 | 15 | 49 | 3.2 | 6.4 | 0.00 | 0.00 | 0.00 | 63 | 1011.4 |
| 20260505073518 | 15 | 49 | 1.6 | 6.4 | 0.00 | 0.00 | 0.00 | 63 | 1011.4 |
| 20260505073038 | 15 | 49 | 1.6 | 6.4 | 0.00 | 0.00 | 0.00 | 62 | 1011.4 |
| 20260505072518 | 15 | 49 | 3.2 | 6.4 | 0.00 | 0.00 | 0.00 | 62 | 1011.3 |
| 20260505072017 | 15 | 49 | 1.6 | 6.4 | 0.00 | 0.00 | 0.00 | 62 | 1011.3 |
| 20260505071533 | 15 | 49 | 3.2 | 6.4 | 0.00 | 0.00 | 0.00 | 62 | 1011.3 |
| 20260505071018 | 16 | 49 | 3.2 | 6.4 | 0.00 | 0.00 | 0.00 | 62 | 1011.1 |
| 20260505070520 | 16 | 49 | 3.2 | 6.4 | 0.00 | 0.00 | 0.00 | 62 | 1011.2 |
| 20260505070032 | 16 | 49 | 3.2 | 6.4 | 0.00 | 0.00 | 0.00 | 61 | 1011.2 |
| 20260505065517 | 16 | 49 | 3.2 | 9.7 | 0.00 | 0.00 | 0.00 | 61 | 1011.2 |
| 20260505065015 | 16 | 49 | 3.2 | 11.3 | 0.00 | 0.00 | 0.00 | 61 | 1011.2 |
| 20260505064538 | 16 | 49 | 4.8 | 11.3 | 0.00 | 0.00 | 0.00 | 60 | 1011.2 |
| 20260505064017 | 16 | 49 | 6.4 | 11.3 | 0.00 | 0.00 | 0.00 | 60 | 1011.2 |
| 20260505063517 | 16 | 49 | 4.8 | 8.0 | 0.00 | 0.00 | 0.00 | 60 | 1011.2 |
| 20260505063045 | 16 | 49 | 3.2 | 9.7 | 0.00 | 0.00 | 0.00 | 59 | 1011.2 |
| 20260505062517 | 16 | 49 | 3.2 | 9.7 | 0.00 | 0.00 | 0.00 | 59 | 1011.0 |
| 20260505062017 | 16 | 49 | 4.8 | 9.7 | 0.00 | 0.00 | 0.00 | 59 | 1011.1 |
| 20260505061539 | 16 | 49 | 4.8 | 8.0 | 0.00 | 0.00 | 0.00 | 60 | 1011.1 |
| 20260505061019 | 16 | 49 | 4.8 | 8.0 | 0.00 | 0.00 | 0.00 | 60 | 1011.1 |
| 20260505060519 | 16 | 49 | 3.2 | 9.7 | 0.00 | 0.00 | 0.00 | 60 | 1011.2 |
| 20260505060035 | 16 | 49 | 4.8 | 12.9 | 0.00 | 0.00 | 0.00 | 60 | 1011.2 |
| 20260505055518 | 16 | 49 | 4.8 | 12.9 | 0.00 | 0.00 | 0.00 | 59 | 1011.1 |
| 20260505055018 | 17 | 49 | 4.8 | 12.9 | 0.00 | 0.00 | 0.00 | 59 | 1011.2 |
| 20260505054543 | 17 | 49 | 3.2 | 11.3 | 0.00 | 0.00 | 0.00 | 59 | 1011.2 |
| 20260505054016 | 17 | 49 | 3.2 | 11.3 | 0.00 | 0.00 | 0.00 | 59 | 1011.2 |
| 20260505053517 | 17 | 49 | 4.8 | 11.3 | 0.00 | 0.00 | 0.00 | 59 | 1011.3 |
| 20260505053043 | 17 | 49 | 4.8 | 9.7 | 0.00 | 0.00 | 0.00 | 60 | 1011.2 |
| 20260505052517 | 17 | 49 | 4.8 | 9.7 | 0.00 | 0.00 | 0.00 | 60 | 1011.2 |
| 20260505052019 | 17 | 49 | 4.8 | 9.7 | 0.00 | 0.00 | 0.00 | 60 | 1011.2 |
| 20260505051541 | 17 | 49 | 4.8 | 9.7 | 0.00 | 0.00 | 0.00 | 60 | 1011.2 |
| 20260505051018 | 17 | 49 | 3.2 | 6.4 | 0.00 | 0.00 | 0.00 | 60 | 1011.2 |
| 20260505050517 | 17 | 49 | 3.2 | 6.4 | 0.00 | 0.00 | 0.00 | 60 | 1011.2 |
| 20260505041537 | 17 | 49 | 1.6 | 6.4 | 0.00 | 0.00 | 0.00 | 56 | 1011.4 |
| 20260505041020 | 17 | 49 | 1.6 | 12.9 | 0.00 | 0.00 | 0.00 | 56 | 1011.4 |
| 20260505040518 | 17 | 49 | 1.6 | 12.9 | 0.00 | 0.00 | 0.00 | 56 | 1011.5 |
| 20260505040037 | 17 | 49 | 3.2 | 6.4 | 0.00 | 0.00 | 0.00 | 56 | 1011.4 |
| 20260505035521 | 17 | 49 | 3.2 | 8.0 | 0.00 | 0.00 | 0.00 | 56 | 1011.5 |
| 20260505035018 | 17 | 49 | 3.2 | 8.0 | 0.00 | 0.00 | 0.00 | 55 | 1011.4 |
| 20260505034533 | 18 | 49 | 3.2 | 8.0 | 0.00 | 0.00 | 0.00 | 55 | 1011.4 |
| 20260505034018 | 18 | 49 | 3.2 | 8.0 | 0.00 | 0.00 | 0.00 | 54 | 1011.3 |
| 20260505033515 | 18 | 49 | 3.2 | 8.0 | 0.00 | 0.00 | 0.00 | 54 | 1011.4 |
| 20260505033032 | 18 | 49 | 4.8 | 9.7 | 0.00 | 0.00 | 0.00 | 53 | 1011.4 |
| 20260505032518 | 18 | 49 | 3.2 | 9.7 | 0.00 | 0.00 | 0.00 | 53 | 1011.4 |
| 20260505032017 | 18 | 49 | 3.2 | 9.7 | 0.00 | 0.00 | 0.00 | 53 | 1011.4 |
| 20260505031538 | 18 | 49 | 4.8 | 9.7 | 0.00 | 0.00 | 0.00 | 52 | 1011.4 |
| 20260505031020 | 18 | 49 | 4.8 | 12.9 | 0.00 | 0.00 | 0.00 | 52 | 1011.3 |
| 20260505030518 | 18 | 49 | 4.8 | 12.9 | 0.00 | 0.00 | 0.00 | 51 | 1011.3 |
| 20260505030038 | 18 | 49 | 3.2 | 8.0 | 0.00 | 0.00 | 0.00 | 51 | 1011.4 |
| 20260505025519 | 18 | 49 | 4.8 | 8.0 | 0.00 | 0.00 | 0.00 | 50 | 1011.3 |
| 20260505025018 | 18 | 49 | 3.2 | 8.0 | 0.00 | 0.00 | 0.00 | 50 | 1011.3 |
| 20260505024537 | 19 | 49 | 3.2 | 8.0 | 0.00 | 0.00 | 0.00 | 49 | 1011.2 |
| 20260505024017 | 19 | 49 | 3.2 | 8.0 | 0.00 | 0.00 | 0.00 | 49 | 1011.2 |
| 20260505023517 | 19 | 49 | 3.2 | 8.0 | 0.00 | 0.00 | 0.00 | 49 | 1011.2 |
| 20260505023037 | 19 | 49 | 4.8 | 8.0 | 0.00 | 0.00 | 0.00 | 48 | 1011.2 |
| 20260505022518 | 19 | 49 | 3.2 | 8.0 | 0.00 | 0.00 | 0.00 | 48 | 1011.2 |
| 20260505022016 | 19 | 49 | 3.2 | 8.0 | 0.00 | 0.00 | 0.00 | 48 | 1011.2 |
| 20260505021537 | 19 | 49 | 3.2 | 11.3 | 0.00 | 0.00 | 0.00 | 47 | 1011.2 |
| 20260505021018 | 20 | 49 | 3.2 | 11.3 | 0.00 | 0.00 | 0.00 | 47 | 1011.2 |
| 20260505020515 | 20 | 49 | 3.2 | 12.9 | 0.00 | 0.00 | 0.00 | 47 | 1011.2 |
| 20260505020037 | 20 | 49 | 6.4 | 12.9 | 0.00 | 0.00 | 0.00 | 47 | 1011.2 |
| 20260505015519 | 20 | 49 | 4.8 | 12.9 | 0.00 | 0.00 | 0.00 | 46 | 1011.1 |
| 20260505015016 | 20 | 49 | 6.4 | 12.9 | 0.00 | 0.00 | 0.00 | 46 | 1011.1 |
| 20260505014535 | 20 | 49 | 4.8 | 11.3 | 0.00 | 0.00 | 0.00 | 46 | 1011.0 |
| 20260505014017 | 20 | 49 | 4.8 | 11.3 | 0.00 | 0.00 | 0.00 | 46 | 1011.1 |
| 20260505013517 | 20 | 49 | 4.8 | 9.7 | 0.00 | 0.00 | 0.00 | 46 | 1010.9 |
| 20260505013037 | 20 | 49 | 4.8 | 9.7 | 0.00 | 0.00 | 0.00 | 45 | 1011.0 |
| 20260505012517 | 20 | 49 | 4.8 | 9.7 | 0.00 | 0.00 | 0.00 | 45 | 1010.8 |
| 20260505012017 | 20 | 49 | 4.8 | 9.7 | 0.00 | 0.00 | 0.00 | 44 | 1010.8 |
| 20260505011541 | 20 | 49 | 4.8 | 9.7 | 0.00 | 0.00 | 0.00 | 44 | 1010.7 |
| 20260505011019 | 21 | 49 | 4.8 | 9.7 | 0.00 | 0.00 | 0.00 | 44 | 1010.7 |
| 20260505010514 | 21 | 49 | 4.8 | 11.3 | 0.00 | 0.00 | 0.00 | 44 | 1010.7 |
| 20260505010101 | 21 | 49 | 4.8 | 11.3 | 0.00 | 0.00 | 0.00 | 43 | 1010.6 |
| 20260505005519 | 21 | 49 | 6.4 | 9.7 | 0.00 | 0.00 | 0.00 | 43 | 1010.6 |
| 20260505005019 | 21 | 49 | 3.2 | 8.0 | 0.00 | 0.00 | 0.00 | 43 | 1010.5 |
| 20260505004540 | 21 | 49 | 3.2 | 11.3 | 0.00 | 0.00 | 0.00 | 42 | 1010.7 |
| 20260505004018 | 21 | 49 | 4.8 | 11.3 | 0.00 | 0.00 | 0.00 | 42 | 1010.6 |
| 20260505003515 | 21 | 49 | 4.8 | 8.0 | 0.00 | 0.00 | 0.00 | 42 | 1010.4 |
| 20260505003042 | 21 | 49 | 4.8 | 11.3 | 0.00 | 0.00 | 0.00 | 42 | 1010.5 |
| 20260505002520 | 21 | 49 | 4.8 | 11.3 | 0.00 | 0.00 | 0.00 | 41 | 1010.4 |
| 20260505002017 | 21 | 49 | 4.8 | 11.3 | 0.00 | 0.00 | 0.00 | 41 | 1010.4 |
| 20260505001538 | 21 | 49 | 3.2 | 11.3 | 0.00 | 0.00 | 0.00 | 41 | 1010.3 |
| 20260505001016 | 22 | 49 | 4.8 | 11.3 | 0.00 | 0.00 | 0.00 | 40 | 1010.3 |
| 20260505000518 | 22 | 49 | 4.8 | 11.3 | 0.00 | 0.00 | 0.00 | 40 | 1010.3 |
| 20260505000044 | 22 | 49 | 6.4 | 11.3 | 0.00 | 0.00 | 0.00 | 40 | 1010.3 |
| 20260504235518 | 22 | 49 | 4.8 | 12.9 | 0.00 | 0.00 | 0.00 | 39 | 1010.3 |
| 20260504235018 | 22 | 49 | 4.8 | 12.9 | 0.00 | 0.00 | 0.00 | 39 | 1010.3 |
| 20260504234533 | 22 | 49 | 4.8 | 12.9 | 0.00 | 0.00 | 0.00 | 39 | 1010.2 |
| 20260504234021 | 22 | 49 | 4.8 | 12.9 | 0.00 | 0.00 | 0.00 | 38 | 1010.2 |
| 20260504233518 | 22 | 49 | 8.0 | 19.3 | 0.00 | 0.00 | 0.00 | 38 | 1010.1 |
| 20260504233040 | 22 | 49 | 8.0 | 19.3 | 0.00 | 0.00 | 0.00 | 38 | 1010.2 |
| 20260504232518 | 22 | 48 | 6.4 | 19.3 | 0.00 | 0.00 | 0.00 | 38 | 1010.2 |
| 20260504232016 | 22 | 48 | 8.0 | 19.3 | 0.00 | 0.00 | 0.00 | 37 | 1010.2 |
| 20260504231544 | 22 | 48 | 9.7 | 19.3 | 0.00 | 0.00 | 0.00 | 37 | 1010.1 |
| 20260504231017 | 23 | 48 | 11.3 | 19.3 | 0.00 | 0.00 | 0.00 | 37 | 1010.1 |
| 20260504230519 | 23 | 48 | 8.0 | 20.9 | 0.00 | 0.00 | 0.00 | 36 | 1010.1 |
| 20260504230044 | 23 | 48 | 8.0 | 20.9 | 0.00 | 0.00 | 0.00 | 36 | 1010.1 |
| 20260504225519 | 23 | 48 | 11.3 | 19.3 | 0.00 | 0.00 | 0.00 | 35 | 1010.0 |
| 20260504225015 | 23 | 48 | 8.0 | 19.3 | 0.00 | 0.00 | 0.00 | 35 | 1010.0 |
| 20260504224537 | 23 | 48 | 9.7 | 19.3 | 0.00 | 0.00 | 0.00 | 34 | 1009.9 |
| 20260504224019 | 23 | 48 | 9.7 | 19.3 | 0.00 | 0.00 | 0.00 | 34 | 1010.0 |
| 20260504223518 | 24 | 48 | 8.0 | 19.3 | 0.00 | 0.00 | 0.00 | 34 | 1010.0 |
| 20260504223036 | 24 | 48 | 8.0 | 24.1 | 0.00 | 0.00 | 0.00 | 34 | 1010.0 |
| 20260504222519 | 24 | 48 | 11.3 | 24.1 | 0.00 | 0.00 | 0.00 | 34 | 1010.1 |
| 20260504222018 | 24 | 48 | 11.3 | 22.5 | 0.00 | 0.00 | 0.00 | 34 | 1010.2 |
| 20260504221553 | 24 | 48 | 8.0 | 19.3 | 0.00 | 0.00 | 0.00 | 33 | 1010.0 |
| 20260504221018 | 23 | 48 | 9.7 | 22.5 | 0.00 | 0.00 | 0.00 | 33 | 1010.0 |
| 20260504220519 | 23 | 48 | 11.3 | 24.1 | 0.00 | 0.00 | 0.00 | 33 | 1010.0 |
| 20260504220037 | 24 | 49 | 9.7 | 25.7 | 0.00 | 0.00 | 0.00 | 33 | 1009.9 |
| 20260504215521 | 24 | 49 | 11.3 | 25.7 | 0.00 | 0.00 | 0.00 | 32 | 1009.9 |
| 20260504215018 | 24 | 49 | 11.3 | 25.7 | 0.00 | 0.00 | 0.00 | 32 | 1009.9 |
| 20260504214537 | 24 | 48 | 9.7 | 19.3 | 0.00 | 0.00 | 0.00 | 33 | 1010.0 |
| 20260504214018 | 24 | 48 | 11.3 | 19.3 | 0.00 | 0.00 | 0.00 | 31 | 1010.0 |
| 20260504213516 | 24 | 48 | 9.7 | 25.7 | 0.00 | 0.00 | 0.00 | 32 | 1010.1 |
| 20260504213047 | 24 | 48 | 11.3 | 25.7 | 0.00 | 0.00 | 0.00 | 32 | 1009.9 |
| 20260504212520 | 24 | 48 | 12.9 | 24.1 | 0.00 | 0.00 | 0.00 | 32 | 1010.1 |
| 20260504212017 | 24 | 47 | 12.9 | 22.5 | 0.00 | 0.00 | 0.00 | 32 | 1010.0 |
| 20260504211544 | 25 | 48 | 11.3 | 22.5 | 0.00 | 0.00 | 0.00 | 31 | 1010.0 |
| 20260504211018 | 25 | 48 | 9.7 | 25.7 | 0.00 | 0.00 | 0.00 | 31 | 1009.9 |
| 20260504210515 | 25 | 48 | 8.0 | 25.7 | 0.00 | 0.00 | 0.00 | 31 | 1010.0 |
| 20260504210038 | 24 | 48 | 12.9 | 27.4 | 0.00 | 0.00 | 0.00 | 31 | 1009.9 |
| 20260504205518 | 24 | 48 | 8.0 | 27.4 | 0.00 | 0.00 | 0.00 | 31 | 1009.9 |
| 20260504205018 | 24 | 48 | 14.5 | 27.4 | 0.00 | 0.00 | 0.00 | 30 | 1009.9 |
| 20260504204537 | 25 | 48 | 8.0 | 25.7 | 0.00 | 0.00 | 0.00 | 31 | 1010.1 |
| 20260504204018 | 25 | 49 | 11.3 | 20.9 | 0.00 | 0.00 | 0.00 | 30 | 1009.9 |
| 20260504203517 | 25 | 48 | 8.0 | 19.3 | 0.00 | 0.00 | 0.00 | 29 | 1010.0 |
| 20260504203046 | 25 | 49 | 4.8 | 12.9 | 0.00 | 0.00 | 0.00 | 29 | 1009.9 |
| 20260504202519 | 25 | 49 | 6.4 | 17.7 | 0.00 | 0.00 | 0.00 | 30 | 1010.0 |
| 20260504202018 | 25 | 49 | 4.8 | 19.3 | 0.00 | 0.00 | 0.00 | 30 | 1010.1 |
| 20260504201540 | 25 | 49 | 9.7 | 19.3 | 0.00 | 0.00 | 0.00 | 30 | 1010.2 |
| 20260504201018 | 25 | 49 | 6.4 | 14.5 | 0.00 | 0.00 | 0.00 | 29 | 1010.2 |
| 20260504200521 | 24 | 49 | 4.8 | 16.1 | 0.00 | 0.00 | 0.00 | 30 | 1010.3 |
| 20260504200038 | 24 | 49 | 6.4 | 16.1 | 0.00 | 0.00 | 0.00 | 30 | 1010.6 |
| 20260504195517 | 24 | 49 | 9.7 | 19.3 | 0.00 | 0.00 | 0.00 | 31 | 1010.7 |
| 20260504195017 | 24 | 49 | 8.0 | 20.9 | 0.00 | 0.00 | 0.00 | 29 | 1010.7 |
| 20260504194539 | 25 | 49 | 12.9 | 20.9 | 0.00 | 0.00 | 0.00 | 30 | 1010.7 |
| 20260504194018 | 25 | 49 | 6.4 | 17.7 | 0.00 | 0.00 | 0.00 | 30 | 1010.7 |
| 20260504193520 | 25 | 49 | 6.4 | 19.3 | 0.00 | 0.00 | 0.00 | 30 | 1010.7 |
| 20260504193037 | 24 | 49 | 6.4 | 19.3 | 0.00 | 0.00 | 0.00 | 30 | 1010.7 |
| 20260504192519 | 24 | 49 | 9.7 | 19.3 | 0.00 | 0.00 | 0.00 | 30 | 1010.9 |
| 20260504192016 | 24 | 49 | 6.4 | 20.9 | 0.00 | 0.00 | 0.00 | 30 | 1011.1 |
| 20260504191540 | 23 | 49 | 11.3 | 24.1 | 0.00 | 0.00 | 0.00 | 30 | 1011.2 |
| 20260504191018 | 24 | 49 | 11.3 | 24.1 | 0.00 | 0.00 | 0.00 | 30 | 1011.2 |
| 20260504190518 | 24 | 49 | 6.4 | 22.5 | 0.00 | 0.00 | 0.00 | 29 | 1011.2 |
| 20260504190034 | 24 | 49 | 8.0 | 22.5 | 0.00 | 0.00 | 0.00 | 29 | 1011.4 |
| 20260504185517 | 24 | 49 | 3.2 | 25.7 | 0.00 | 0.00 | 0.00 | 30 | 1011.7 |
| 20260504185017 | 24 | 49 | 11.3 | 25.7 | 0.00 | 0.00 | 0.00 | 30 | 1011.8 |
| 20260504184535 | 24 | 49 | 11.3 | 25.7 | 0.00 | 0.00 | 0.00 | 30 | 1011.8 |
| 20260504184018 | 24 | 49 | 8.0 | 22.5 | 0.00 | 0.00 | 0.00 | 30 | 1011.8 |
| 20260504183516 | 24 | 49 | 6.4 | 16.1 | 0.00 | 0.00 | 0.00 | 31 | 1011.9 |
| 20260504183037 | 23 | 49 | 3.2 | 17.7 | 0.00 | 0.00 | 0.00 | 31 | 1011.9 |
| 20260504182522 | 23 | 49 | 3.2 | 17.7 | 0.00 | 0.00 | 0.00 | 30 | 1012.0 |
| 20260504182018 | 23 | 49 | 8.0 | 24.1 | 0.00 | 0.00 | 0.00 | 31 | 1012.0 |
| 20260504181538 | 23 | 49 | 8.0 | 24.1 | 0.00 | 0.00 | 0.00 | 31 | 1012.2 |
| 20260504181020 | 23 | 49 | 11.3 | 22.5 | 0.00 | 0.00 | 0.00 | 32 | 1012.2 |
| 20260504180519 | 23 | 49 | 11.3 | 22.5 | 0.00 | 0.00 | 0.00 | 32 | 1012.2 |
| 20260504180045 | 23 | 49 | 4.8 | 22.5 | 0.00 | 0.00 | 0.00 | 32 | 1012.3 |
| 20260504175518 | 22 | 49 | 11.3 | 22.5 | 0.00 | 0.00 | 0.00 | 32 | 1012.3 |
| 20260504175018 | 22 | 49 | 6.4 | 20.9 | 0.00 | 0.00 | 0.00 | 32 | 1012.5 |
| 20260504174532 | 22 | 49 | 9.7 | 20.9 | 0.00 | 0.00 | 0.00 | 32 | 1012.6 |
| 20260504174018 | 22 | 49 | 6.4 | 27.4 | 0.00 | 0.00 | 0.00 | 33 | 1012.5 |
| 20260504173518 | 22 | 49 | 9.7 | 27.4 | 0.00 | 0.00 | 0.00 | 33 | 1012.6 |
| 20260504173035 | 22 | 49 | 4.8 | 14.5 | 0.00 | 0.00 | 0.00 | 33 | 1012.6 |
| 20260504172518 | 22 | 49 | 6.4 | 16.1 | 0.00 | 0.00 | 0.00 | 33 | 1012.7 |
| 20260504172016 | 22 | 49 | 8.0 | 22.5 | 0.00 | 0.00 | 0.00 | 33 | 1012.9 |
| 20260504171539 | 22 | 49 | 3.2 | 22.5 | 0.00 | 0.00 | 0.00 | 33 | 1012.9 |
| 20260504171019 | 22 | 49 | 12.9 | 22.5 | 0.00 | 0.00 | 0.00 | 34 | 1013.0 |
| 20260504170518 | 21 | 49 | 6.4 | 19.3 | 0.00 | 0.00 | 0.00 | 34 | 1013.1 |